[[{"header":{"parameterUnit":"m.s-1","parameterCategory":1,"la1":30.2991,"la2":30.254,"lo1":-89.0895,"lo2":-89.0444,"dy":0.0017,"dx":0.0017,"nx":28,"ny":28,"refTime":"2025-08-20T09:00:00:Z","depth":0,"parameterNumber":2,"parameterNumberName":"U-component_of_WINDS"},"data":[0,0,0,0,0,0,0,0,0,0,0,0,0,0,0,0,0,0,0,0,0,0,0,0,0,0,0,0,0,0,0,0,0,0,0,0,0,0,0,0,0,0,0,0,0,0,0,0,0,0,0,0,0,0,0,0,0,0,2.3641,2.3642,0,2.3759,2.376,2.3761,2.3765,2.3764,2.3762,2.3761,2.3884,2.3888,2.3893,0,0,0,0,0,0,0,0,0,0,0,0,0,2.3422,2.3426,2.3641,2.3643,2.3644,2.3758,2.376,2.3762,2.3765,2.3764,2.3762,2.376,2.3882,2.3888,2.3893,0,0,0,0,0,0,0,0,0,0,0,0,0,2.3526,2.3428,2.3641,2.366,2.3662,2.3758,2.376,2.3762,2.3766,2.3764,2.3761,2.3759,2.3881,2.3887,2.3894,2.398,0,0,2.3915,2.3918,0,0,0,0,0,0,0,0,2.3521,2.3534,2.3655,2.3658,2.3662,2.3745,2.3728,2.3835,2.3766,2.3727,2.3761,2.3758,2.384,2.385,2.3877,2.3985,2.3991,2.3916,2.392,2.3923,2.3925,0,0,0,0,0,0,0,2.3513,2.3529,2.3688,2.3657,2.3661,2.3663,2.3675,2.3748,2.3794,2.373,2.373,2.3744,2.3841,2.387,2.3879,2.3993,2.3916,2.3922,2.3926,2.3929,2.4179,2.4181,0,0,0,0,0,0,2.3502,2.3523,2.3684,2.3691,2.3584,2.3669,2.3683,2.372,2.3793,2.3802,2.3746,2.3744,2.3859,2.3871,2.3884,2.399,2.3923,2.3929,2.3933,2.4177,2.418,2.4182,0,0,0,0,0,0,2.3497,2.3516,2.3679,2.3608,2.3628,2.3675,2.3717,2.3724,2.3753,2.3805,2.3813,2.3767,2.3858,2.3874,2.3956,2.3994,2.3932,2.3939,2.4174,2.4177,2.4181,2.4202,0,0,0,0,0,0,2.3491,2.3515,2.3547,2.3608,2.3632,2.3749,2.372,2.3728,2.3764,2.3763,2.3827,2.3836,2.3857,2.3946,2.3963,2.4003,2.3944,2.417,2.4175,2.418,2.4198,2.4206,2.4213,0,0,0,0,0,2.3483,2.3549,2.3549,2.3568,2.3674,2.3751,2.3765,2.3788,2.3767,2.3801,2.3835,2.3834,2.3987,2.3954,2.3973,2.4016,2.4168,2.4174,2.4179,2.4195,2.4205,2.4213,0,0,0,0,0,0,2.3491,2.3557,2.3558,2.3645,2.3692,2.3751,2.3794,2.3797,2.3852,2.3848,2.3875,2.389,2.3971,2.4002,2.3964,2.4103,2.4075,2.4085,2.4081,2.409,2.4097,2.4089,2.395,0,0,0,0,0,2.3503,2.356,2.3614,2.3686,2.3709,2.3748,2.3782,2.3796,2.3846,2.3867,2.3906,2.3956,2.4016,2.4054,2.4112,2.4202,2.4217,2.4241,2.4248,2.4254,2.4263,2.4314,2.4326,2.4201,2.4201,2.4201,0,0,2.3529,2.3571,2.3605,2.3688,2.3727,2.3786,2.3765,2.3828,2.3872,2.3877,2.3956,2.3987,2.4045,2.4131,2.4172,2.4159,2.43,2.4261,2.4265,2.4271,2.4321,2.4333,2.4343,2.4205,2.4204,2.4203,0,0,2.3605,2.3642,2.3707,2.3745,2.3803,2.3828,2.3844,2.3903,2.3923,2.4004,2.4009,2.4062,2.4163,2.4205,2.4239,2.4331,2.4333,2.4349,2.4388,2.4437,2.4447,2.4456,2.449,2.4502,2.4357,2.4357,2.4357,0,2.3629,2.3718,2.3739,2.3803,2.384,2.3846,2.3912,2.3948,2.4023,2.4048,2.4033,2.4161,2.42,2.4297,2.432,2.4347,2.4366,2.4342,2.4444,2.4453,2.4462,2.4495,2.4507,2.4359,2.4359,2.4358,2.4358,0,2.3745,2.3806,2.3851,2.3922,2.3964,2.4029,2.4061,2.4101,2.4111,2.4138,2.422,2.4267,2.4335,2.4358,2.4369,2.4458,2.4448,2.4438,2.4411,2.4475,2.4507,2.4519,2.4361,2.4361,2.436,2.436,0,0,2.3831,2.3913,2.3929,2.3962,2.4027,2.4075,2.414,2.4205,2.4239,2.429,2.4346,2.4432,2.4423,2.4462,2.4477,2.4521,2.4592,2.4506,2.4507,2.4521,2.4694,2.4702,2.4717,2.4593,2.4596,2.4598,2.469,0,2.3916,2.403,2.4052,2.4153,2.421,2.4217,2.4273,2.432,2.4346,2.44,2.443,2.4491,2.4474,2.4497,2.454,2.4574,2.4628,2.4568,2.4647,2.465,2.4634,2.4733,2.4742,2.4827,2.4702,2.4704,2.4706,0,2.403,2.4083,2.4189,2.4247,2.4272,2.4322,2.4384,2.4435,2.4488,2.4504,2.4547,2.4558,2.4627,2.4595,2.4691,2.465,2.4683,2.4705,2.4709,2.4718,2.4683,2.4746,2.4854,2.4867,2.4725,2.4724,2.4722,0,2.4084,2.4182,2.4258,2.4286,2.4354,2.439,2.442,2.4471,2.4509,2.4563,2.4589,2.4651,2.4685,2.4733,2.476,2.4734,2.4855,2.4825,2.4872,2.4871,2.4898,2.4896,2.5014,2.4917,2.4917,2.4917,2.4916,0,2.4177,2.4242,2.4283,2.4331,2.4404,2.4428,2.45,2.453,2.4575,2.4629,2.4638,2.4689,2.4721,2.4777,2.4798,2.4875,2.489,2.4907,2.4912,2.4907,2.4905,2.493,2.4925,2.492,2.4919,2.4919,2.4918,0,2.425,2.428,2.4364,2.4422,2.4438,2.449,2.4539,2.4586,2.4612,2.4681,2.4698,2.474,2.4806,2.4837,2.4919,2.4934,2.5021,2.5022,2.5003,2.5006,2.5051,2.5047,2.5191,2.5211,2.5099,2.51,2.5101,0,2.4308,2.4358,2.4421,2.4457,2.4488,2.4547,2.4586,2.4612,2.4652,2.4716,2.4755,2.4821,2.4876,2.498,2.5019,2.5082,2.5085,2.5131,2.5095,2.5088,2.5088,2.5085,2.5091,2.5138,2.5139,2.514,2.5141,0,2.4408,2.4421,2.4476,2.4537,2.4583,2.4632,2.4681,2.471,2.4744,2.4789,2.4856,2.4898,2.4981,2.5047,2.5112,2.5145,2.5149,2.5151,2.5166,2.5162,2.515,2.5158,2.5023,2.5149,2.5148,2.5147,2.5147,2.5146,2.4477,2.4522,2.4574,2.4635,2.4674,2.4719,2.4766,2.4798,2.4854,2.4924,2.4936,2.5007,2.506,2.5148,2.5182,2.5239,2.5229,2.5249,2.5255,2.526,2.5263,2.5139,2.5251,2.5251,2.5251,2.525,2.525,0,2.4579,2.4612,2.4669,2.4736,2.4785,2.4783,2.4837,2.4878,2.4941,2.4988,2.5041,2.5119,2.5183,2.5226,2.5291,2.5329,2.5332,2.5345,2.5343,2.5351,2.5268,2.5249,2.5341,2.5341,2.5341,2.5341,2.5341,2.5341,2.4638,2.4715,2.4734,2.483,2.4863,2.4933,2.4964,2.5006,2.5045,2.513,2.5183,2.521,2.5257,2.5326,2.5385,2.5396,2.542,2.5433,2.5444,2.5366,2.5357,2.5348,2.5331,2.5438,2.5438,2.5523,2.5524,2.5524]},{"header":{"parameterUnit":"m.s-1","parameterCategory":1,"la1":30.2991,"la2":30.254,"lo1":-89.0895,"lo2":-89.0444,"dy":0.0017,"dx":0.0017,"nx":28,"ny":28,"refTime":"2025-08-20T09:00:00:Z","depth":0,"parameterNumber":3,"parameterNumberName":"V-component_of_WINDS"},"data":[0,0,0,0,0,0,0,0,0,0,0,0,0,0,0,0,0,0,0,0,0,0,0,0,0,0,0,0,0,0,0,0,0,0,0,0,0,0,0,0,0,0,0,0,0,0,0,0,0,0,0,0,0,0,0,0,0,0,1.1224,1.1223,0,1.1152,1.1151,1.115,1.1117,1.1117,1.1117,1.1117,1.1041,1.1039,1.1037,0,0,0,0,0,0,0,0,0,0,0,0,0,1.1331,1.1329,1.1224,1.1223,1.1222,1.1152,1.1151,1.115,1.1117,1.1117,1.1117,1.1117,1.1042,1.104,1.1037,0,0,0,0,0,0,0,0,0,0,0,0,0,1.1274,1.1329,1.1224,1.1197,1.1194,1.1152,1.1151,1.115,1.1117,1.1117,1.1117,1.1117,1.1043,1.104,1.1037,1.1015,0,0,1.1027,1.1026,0,0,0,0,0,0,0,0,1.1278,1.127,1.1202,1.1199,1.1196,1.1143,1.1161,1.1104,1.1117,1.1146,1.1117,1.1117,1.1075,1.1069,1.1056,1.1012,1.1009,1.1027,1.1025,1.1024,1.1023,0,0,0,0,0,0,0,1.1282,1.1273,1.1195,1.1201,1.1197,1.1188,1.118,1.115,1.1111,1.1144,1.1141,1.1133,1.1073,1.1059,1.1054,1.1007,1.1027,1.1024,1.1022,1.1021,1.094,1.094,0,0,0,0,0,0,1.129,1.1277,1.1198,1.1193,1.1238,1.1186,1.1177,1.116,1.1111,1.1104,1.1133,1.1132,1.1064,1.1057,1.1051,1.1021,1.1024,1.1021,1.1019,1.0941,1.094,1.094,0,0,0,0,0,0,1.1293,1.1283,1.1201,1.1234,1.1223,1.1184,1.1165,1.1159,1.1144,1.1103,1.1096,1.1125,1.1064,1.1055,1.1024,1.1018,1.1019,1.1017,1.0941,1.094,1.094,1.0962,0,0,0,0,0,0,1.1296,1.1285,1.1277,1.1234,1.1221,1.1176,1.1165,1.1157,1.1139,1.1136,1.1094,1.1087,1.1063,1.1029,1.1021,1.1014,1.1014,1.0941,1.0941,1.094,1.0962,1.0963,1.0963,0,0,0,0,0,1.13,1.1286,1.1277,1.1267,1.1211,1.1176,1.1168,1.1142,1.1138,1.113,1.1103,1.1088,1.102,1.1026,1.1017,1.1008,1.0941,1.0941,1.094,1.0962,1.0963,1.0963,0,0,0,0,0,0,1.1328,1.128,1.1269,1.1241,1.1213,1.117,1.1158,1.1144,1.1115,1.1114,1.1082,1.1072,1.1044,1.1023,1.1031,1.0984,1.0979,1.0977,1.0999,1.0999,1.1,1.1005,1.1012,0,0,0,0,0,1.1331,1.1308,1.1266,1.1246,1.1232,1.1198,1.1182,1.1163,1.1132,1.112,1.1092,1.1062,1.1033,1.1015,1.0987,1.0959,1.0948,1.0948,1.0949,1.095,1.0948,1.093,1.0929,1.0938,1.0938,1.0938,0,0,1.1338,1.1308,1.1295,1.1251,1.1227,1.1202,1.1188,1.1163,1.1143,1.1116,1.1085,1.1063,1.1027,1.0997,1.0982,1.0979,1.0943,1.0949,1.095,1.0948,1.0929,1.0928,1.0928,1.0937,1.0938,1.0938,0,0,1.1336,1.1312,1.1291,1.1267,1.1231,1.1208,1.1203,1.1162,1.1147,1.1115,1.1093,1.107,1.1022,1.0997,1.0978,1.0965,1.095,1.0957,1.096,1.0943,1.0942,1.0941,1.0935,1.0934,1.0955,1.0955,1.0955,0,1.1348,1.131,1.1282,1.1258,1.1238,1.1213,1.1191,1.1168,1.1125,1.1111,1.1108,1.1046,1.1021,1.0984,1.098,1.0966,1.0958,1.0961,1.0945,1.0943,1.0942,1.0936,1.0934,1.0956,1.0956,1.0956,1.0956,0,1.1326,1.13,1.1288,1.1246,1.1225,1.1202,1.117,1.1152,1.1135,1.1112,1.1079,1.1047,1.1011,1.1001,1.0985,1.0961,1.096,1.0951,1.0945,1.0943,1.0937,1.0934,1.0957,1.0957,1.0957,1.0956,0,0,1.1341,1.1283,1.1279,1.1259,1.1216,1.1195,1.117,1.1135,1.112,1.109,1.1067,1.1027,1.1018,1.0997,1.0977,1.0962,1.0952,1.0955,1.0953,1.0954,1.0922,1.0928,1.0926,1.0942,1.0941,1.0941,1.0925,0,1.1332,1.1287,1.1261,1.1226,1.12,1.1175,1.1153,1.1124,1.1101,1.1076,1.1051,1.1022,1.1014,1.1,1.0984,1.0957,1.0945,1.0958,1.0919,1.0918,1.0928,1.0923,1.093,1.0916,1.0922,1.0922,1.0922,0,1.1316,1.1287,1.125,1.1209,1.1197,1.1178,1.1143,1.1119,1.1085,1.1069,1.1045,1.1025,1.0996,1.0993,1.0953,1.0962,1.0944,1.0928,1.0927,1.0922,1.0919,1.0917,1.0911,1.0909,1.0918,1.0918,1.0918,0,1.1329,1.128,1.1251,1.1235,1.1187,1.1174,1.1153,1.1119,1.1099,1.1068,1.1054,1.1021,1.1002,1.0976,1.0947,1.0948,1.0908,1.0903,1.0893,1.0894,1.0886,1.0887,1.0877,1.0876,1.0876,1.0876,1.0877,0,1.1322,1.13,1.1256,1.1238,1.1212,1.1182,1.1156,1.1133,1.1103,1.1079,1.1055,1.1033,1.0996,1.097,1.0947,1.0915,1.0907,1.0893,1.0887,1.0895,1.0896,1.0882,1.0882,1.0876,1.0876,1.0876,1.0876,0,1.1332,1.1302,1.1268,1.1225,1.1214,1.1196,1.1158,1.1139,1.1115,1.1085,1.1077,1.1039,1.1005,1.0974,1.093,1.0914,1.0883,1.0875,1.0894,1.0891,1.0882,1.0883,1.0862,1.0857,1.0862,1.0862,1.0862,0,1.1329,1.1311,1.1266,1.1248,1.1228,1.12,1.1179,1.1148,1.1128,1.1086,1.1072,1.1037,1.1008,1.0956,1.0923,1.0889,1.088,1.0875,1.0875,1.0882,1.0878,1.0879,1.0877,1.0876,1.0876,1.0876,1.0876,0,1.1326,1.1312,1.1284,1.125,1.1226,1.1198,1.1168,1.1155,1.1118,1.1096,1.1062,1.1039,1.0993,1.0958,1.092,1.0897,1.088,1.0876,1.0872,1.0879,1.089,1.0883,1.0895,1.0877,1.0877,1.0877,1.0877,1.0876,1.1329,1.1311,1.1276,1.1245,1.1219,1.1192,1.1172,1.1145,1.1116,1.1077,1.106,1.1025,1.0989,1.0936,1.0914,1.0885,1.0881,1.0875,1.0873,1.0872,1.0873,1.0895,1.0878,1.0878,1.0878,1.0878,1.0878,0,1.1324,1.13,1.1271,1.1231,1.1206,1.1192,1.1159,1.1138,1.1108,1.1077,1.1048,1.1008,1.0973,1.0938,1.0902,1.0885,1.0876,1.0877,1.0877,1.0872,1.0879,1.0886,1.0885,1.0885,1.0885,1.0885,1.0885,1.0885,1.1318,1.1288,1.1269,1.1225,1.12,1.1166,1.1148,1.1122,1.1097,1.1053,1.1025,1.1002,1.0968,1.0929,1.0896,1.0887,1.0874,1.0876,1.0864,1.0872,1.0872,1.0871,1.0877,1.0874,1.0874,1.0859,1.0859,1.0859]}]]